This demonstration page uses our WeatherBlox Daily Observations layout. Learn more.

Left ArrowRight Arrow

34.74481, -87.66753

Hourly Observations for October 22, 2021

Temp ( °F °C ) Dew Point ( °F °C ) Humidity (%) Winds ( mph kmh ) Pressure ( in mb ) Visibility ( mi km ) Precip ( " mm )
12:53 am 00:53 Clear 57 13.9 50 10 78 78 NNW 3 6 30.06 1018 10 16 N/A
1:53 am 01:53 Clear 58 14.4 49 9.4 72 72 N 5 7 30.07 1018 10 16 N/A
2:53 am 02:53 Clear 56 13.3 48 8.9 75 75 N 5 7 30.07 1018 10 16 N/A
3:53 am 03:53 Clear 55 12.8 48 8.9 77 77 NNE 3 6 30.07 1018 10 16 N/A
4:53 am 04:53 Clear 54 12.2 48 8.9 80 80 VRB 3 6 30.07 1018 10 16 N/A
5:53 am 05:53 Clear 51 10.6 46 7.8 83 83 N N/A 30.09 1019 10 16 N/A
6:53 am 06:53 Clear 50 10 46 7.8 86 86 W 3 6 30.09 1019 10 16 N/A
7:53 am 07:53 Sunny 52 11.1 48 8.9 86 86 WSW 3 6 30.11 1020 10 16 N/A
8:53 am 08:53 Sunny 58 14.4 48 8.9 70 70 NNW 6 9 30.11 1020 10 16 N/A
9:53 am 09:53 Sunny 59 15 48 8.9 67 67 NNW 6 9 30.12 1020 10 16 N/A
10:53 am 10:53 Sunny 62 16.7 48 8.9 60 60 N 5 7 30.12 1020 10 16 N/A
11:53 am 11:53 Sunny 64 17.8 48 8.9 56 56 W 5 7 30.11 1020 10 16 N/A
12:53 pm 12:53 Sunny 67 19.4 49 9.4 53 53 NNW 7 11 30.09 1019 10 16 N/A
1:53 pm 13:53 Sunny 68 20 49 9.4 51 51 WSW 7 11 30.06 1018 10 16 N/A
2:53 pm 14:53 Sunny 70 21.1 50 10 49 49 NW 5 7 30.04 1017 10 16 N/A
3:53 pm 15:53 Sunny 69 20.6 49 9.4 49 49 NNW 8 13 30.04 1017 10 16 N/A
4:53 pm 16:53 Sunny 68 20 50 10 53 53 NW 8 13 30.05 1018 10 16 N/A
5:53 pm 17:53 Mostly Sunny 64 17.8 50 10 60 60 WNW 7 11 30.05 1018 10 16 N/A
6:53 pm 18:53 Clear 61 16.1 49 9.4 65 65 NW 3 6 30.05 1018 10 16 N/A
7:53 pm 19:53 Clear 56 13.3 49 9.4 77 77 N N/A 30.05 1018 10 16 N/A
8:53 pm 20:53 Clear 54 12.2 50 10 87 87 N N/A 30.06 1018 10 16 N/A
9:53 pm 21:53 Clear 53 11.7 49 9.4 86 86 N N/A 30.06 1018 10 16 N/A
10:53 pm 22:53 Hazy 53 11.7 48 8.9 83 83 N N/A 30.06 1018 6 10 N/A
11:53 pm 23:53 Clear with Mist and Fog 52 11.1 48 8.9 86 86 N N/A 30.06 1018 3 4 N/A

Powered by AerisWeather